User: anonymous   Login
Location: Dillon
(41.1766°N, 107.0923°W)
Time: 01:21:49
(UTC+00:00)
Language:

FALCONSAT 3 - Orbit

View from above orbital plane
View from above orbital plane
View from above satellite
View from above satellite

Ground track
Ground track

The orbit data is extracted from the following two-line orbital elements,

1 30776U 07006E   22180.33919209  .00021533  00000-0  32039-3 0  9999
2 30776  35.4290 182.3612 0003966 212.0469 148.0022 15.54197832851432
Epoch (UTC): 29 June 2022 08:08:26
Eccentricity: 0.0003966
inclination: 35.4290°
perigee height: 402 km
apogee height: 407 km
right ascension of ascending node: 182.3612°
argument of perigee: 212.0469°
revolutions per day: 15.54197832
mean anomaly at epoch: 148.0022°
orbit number at epoch: 85143

The dashed part of the orbit path shows where the satellite is in the earth's shadow,  

DLR